Location: A�t �Alizem
(31.2076°N, 8.7872°W)
Time: 20:53:35
(UTC+00:00)

deb Explorer IX - Pass Details

Date: 24 June 2021
Orbit: 541 x 1234 km, 38.9° (Epoch: 01 August)

Event Time Altitude Azimuth Distance (km) Brightness Sun altitude
Exits shadow 02:12:23 23° 311° (NW) 1,623 ? -30.9°
Maximum altitude 02:15:14 38° 5° (N) 1,257 ? -30.6°
Drops below altitude 10° 02:21:12 10° 72° (ENE) 2,711 ? -30.0°
Sets 02:24:18 0° 80° (E) 3,779 ? -29.7°
